,,Stat5,,Stat1,,Stat2,,Stat3,,Stat4,,Wind1,,Wind1,
time,status,PA1M_AVG,status,PR1M_SUM,status,RH1M_AVG,status,SR1M_AVG,status,TA1M_AVG,status,W1dAve1m,status,W1sAve1m,
2002-09-13, 00:00:01,VALID,919.831,VALID,0,VALID,95.3551,VALID,-0.0169808,VALID,21.2254,VALID,2,VALID,0.340303,
2002-09-13, 00:01:00,VALID,919.847,VALID,0,VALID,95.1313,VALID,-0.0509425,VALID,21.2092,VALID,351,VALID,0.377056,
2002-09-13, 00:02:00,VALID,919.848,VALID,0,VALID,95.1478,VALID,0.0509425,VALID,21.1764,VALID,351,VALID,0.088141,
2002-09-13, 00:03:01,VALID,919.845,VALID,0,VALID,95.3131,VALID,0.0679233,VALID,21.1629,VALID,351,VALID,0,
2002-09-13, 00:04:00,VALID,919.818,VALID,0,VALID,95.4326,VALID,0.0169808,VALID,21.1497,VALID,351,VALID,0.000892857,
2002-09-13, 00:05:00,VALID,919.815,VALID,0,VALID,95.5166,VALID,0,VALID,21.1661,VALID,279,VALID,0.177684,
2002-09-13, 00:06:00,VALID,919.797,VALID,0,VALID,95.481,VALID,0.0339617,VALID,21.1592,VALID,191,VALID,0.30293,
2002-09-13, 00:07:00,VALID,919.795,VALID,0,VALID,95.4314,VALID,0.0679233,VALID,21.1634,VALID,162,VALID,0.169872,
2002-09-13, 00:08:00,VALID,919.789,VALID,0,VALID,95.4555,VALID,0.0509425,VALID,21.143,VALID,162,VALID,0.0292411,
2002-09-13, 00:09:00,VALID,919.78,VALID,0,VALID,95.6196,VALID,0.0679233,VALID,21.1535,VALID,81,VALID,0.33676,
2002-09-13, 00:10:01,VALID,919.779,VALID,0,VALID,95.6908,VALID,0.0169808,VALID,21.1823,VALID,12,VALID,0.53125,
2002-09-13, 00:11:01,VALID,919.77,VALID,0,VALID,95.6603,VALID,0.0169808,VALID,21.1858,VALID,6,VALID,0.743566,
2002-09-13, 00:12:00,VALID,919.78,VALID,0,VALID,95.5039,VALID,0.0339617,VALID,21.1723,VALID,13,VALID,0.936061,
2002-09-13, 00:13:01,VALID,919.79,VALID,0,VALID,95.5674,VALID,0.0339617,VALID,21.1793,VALID,14,VALID,0.973741,
2002-09-13, 00:14:00,VALID,919.789,VALID,0,VALID,95.5674,VALID,0.0339617,VALID,21.1823,VALID,11,VALID,0.798024,
2002-09-13, 00:15:01,VALID,919.8,VALID,0,VALID,95.6158,VALID,0.0169808,VALID,21.1823,VALID,7,VALID,0.522821,
2002-09-13, 00:16:00,VALID,919.811,VALID,0,VALID,95.6463,VALID,0.0339617,VALID,21.1699,VALID,7,VALID,0.307155,
2002-09-13, 00:17:01,VALID,919.83,VALID,0,VALID,95.7569,VALID,0,VALID,21.1801,VALID,7,VALID,0.00351562,
2002-09-13, 00:18:00,VALID,919.839,VALID,0,VALID,95.7709,VALID,0.0169808,VALID,21.1667,VALID,3,VALID,0.0861328,
2002-09-13, 00:19:01,VALID,919.851,VALID,0,VALID,95.7773,VALID,0,VALID,21.1602,VALID,337,VALID,0.173314,
2002-09-13, 00:20:00,VALID,919.845,VALID,0,VALID,95.8815,VALID,0,VALID,21.1632,VALID,249,VALID,0.285262,
2002-09-13, 00:21:00,VALID,919.826,VALID,0,VALID,95.8345,VALID,0.0169808,VALID,21.1761,VALID,220,VALID,0.339021,
2002-09-13, 00:22:00,VALID,919.796,VALID,0,VALID,95.8281,VALID,0,VALID,21.1734,VALID,214,VALID,0.180532,
2002-09-13, 00:23:00,VALID,919.778,VALID,0,VALID,95.8332,VALID,0.0339617,VALID,21.1731,VALID,200,VALID,0.0493421,
2002-09-13, 00:24:00,VALID,919.751,VALID,0,VALID,95.8141,VALID,0,VALID,21.1605,VALID,200,VALID,0.0219595,
2002-09-13, 00:25:00,VALID,919.733,VALID,0,VALID,95.8624,VALID,0,VALID,21.1511,VALID,337,VALID,0.246916,
2002-09-13, 00:26:00,VALID,919.723,VALID,0,VALID,95.8993,VALID,0,VALID,21.154,VALID,353,VALID,0.186655,
2002-09-13, 00:27:00,VALID,919.712,VALID,0,VALID,95.8459,VALID,-0.0169808,VALID,21.1476,VALID,353,VALID,0.328536,
2002-09-13, 00:28:00,VALID,919.696,VALID,0,VALID,95.7684,VALID,0,VALID,21.1578,VALID,13,VALID,0.470439,
2002-09-13, 00:29:01,VALID,919.693,VALID,0,VALID,95.6437,VALID,-0.0169808,VALID,21.1185,VALID,18,VALID,0.565789,
2002-09-13, 00:30:00,VALID,919.69,VALID,0,VALID,95.5662,VALID,0.0169808,VALID,21.1023,VALID,18,VALID,0.567145,
2002-09-13, 00:31:00,VALID,919.685,VALID,0,VALID,95.5509,VALID,0,VALID,21.0762,VALID,19,VALID,0.61616,
2002-09-13, 00:32:00,VALID,919.679,VALID,0,VALID,95.4975,VALID,0.0169808,VALID,21.0439,VALID,35,VALID,0.519426,
2002-09-13, 00:33:00,VALID,919.684,VALID,0,VALID,95.5217,VALID,0.0169808,VALID,21.0049,VALID,31,VALID,0.567845,
2002-09-13, 00:34:00,VALID,919.698,VALID,0,VALID,95.5802,VALID,0.0169808,VALID,20.989,VALID,24,VALID,0.460304,
2002-09-13, 00:35:00,VALID,919.713,VALID,0,VALID,95.7213,VALID,0,VALID,20.9669,VALID,17,VALID,0.492188,
2002-09-13, 00:36:00,VALID,919.72,VALID,0,VALID,95.8803,VALID,0,VALID,20.9535,VALID,4,VALID,0.664696,
2002-09-13, 00:37:00,VALID,919.74,VALID,0,VALID,95.8879,VALID,0.0169808,VALID,20.9346,VALID,13,VALID,0.615132,
2002-09-13, 00:38:00,VALID,919.74,VALID,0,VALID,96.0748,VALID,0,VALID,20.9249,VALID,20,VALID,1.12584,
2002-09-13, 00:39:00,VALID,919.745,VALID,0,VALID,96.2172,VALID,0,VALID,20.9053,VALID,23,VALID,0.934211,
2002-09-13, 00:40:00,VALID,919.752,VALID,0,VALID,96.3037,VALID,0.0169808,VALID,20.9182,VALID,21,VALID,1.05638,
2002-09-13, 00:41:01,VALID,919.764,VALID,0,VALID,96.2834,VALID,0,VALID,20.8996,VALID,14,VALID,0.884868,
2002-09-13, 00:42:00,VALID,919.762,VALID,0,VALID,96.3419,VALID,0,VALID,20.8894,VALID,18,VALID,0.909206,
2002-09-13, 00:43:00,VALID,919.761,VALID,0,VALID,96.2999,VALID,-0.0339617,VALID,20.8767,VALID,18,VALID,0.642681,
2002-09-13, 00:44:00,VALID,919.768,VALID,0,VALID,96.202,VALID,0,VALID,20.8506,VALID,16,VALID,0.595439,
2002-09-13, 00:45:00,VALID,919.753,VALID,0,VALID,96.1918,VALID,0,VALID,20.8118,VALID,354,VALID,0.630345,
2002-09-13, 00:46:00,VALID,919.733,VALID,0,VALID,96.1473,VALID,0,VALID,20.7989,VALID,6,VALID,0.470017,
2002-09-13, 00:47:00,VALID,919.702,VALID,0,VALID,96.1982,VALID,0.0509425,VALID,20.7763,VALID,14,VALID,0.309827,
2002-09-13, 00:48:00,VALID,919.685,VALID,0,VALID,96.3177,VALID,0,VALID,20.7666,VALID,18,VALID,0.702703,
2002-09-13, 00:49:00,VALID,919.661,VALID,0,VALID,96.2414,VALID,0,VALID,20.744,VALID,11,VALID,0.86986,
2002-09-13, 00:50:00,VALID,919.658,VALID,0,VALID,96.352,VALID,-0.0169808,VALID,20.7316,VALID,21,VALID,1.16533,
2002-09-13, 00:51:00,VALID,919.64,VALID,0,VALID,96.4283,VALID,0,VALID,20.7343,VALID,20,VALID,1.08368,
2002-09-13, 00:52:00,VALID,919.637,VALID,0,VALID,96.4639,VALID,0,VALID,20.7477,VALID,13,VALID,0.686867,
2002-09-13, 00:53:01,VALID,919.645,VALID,0,VALID,96.4334,VALID,0,VALID,20.7346,VALID,12,VALID,0.737459,
2002-09-13, 00:54:00,VALID,919.656,VALID,0,VALID,96.3864,VALID,0,VALID,20.7313,VALID,25,VALID,0.879856,
2002-09-13, 00:55:00,VALID,919.674,VALID,0,VALID,96.3507,VALID,0,VALID,20.6955,VALID,21,VALID,0.778783,
2002-09-13, 00:56:00,VALID,919.663,VALID,0,VALID,96.3673,VALID,0,VALID,20.6931,VALID,15,VALID,1.12774,
2002-09-13, 00:57:00,VALID,919.663,VALID,0,VALID,96.3864,VALID,0,VALID,20.6737,VALID,6,VALID,0.703947,
2002-09-13, 00:58:00,VALID,919.654,VALID,0,VALID,96.5224,VALID,-0.0339617,VALID,20.657,VALID,11,VALID,0.7519,
2002-09-13, 00:59:00,VALID,919.64,VALID,0,VALID,96.6152,VALID,0,VALID,20.6409,VALID,18,VALID,1.10012,
2002-09-13, 01:00:00,VALID,919.637,VALID,0,VALID,96.6839,VALID,-0.0339617,VALID,20.6473,VALID,9,VALID,0.767314,
2002-09-13, 01:01:00,VALID,919.625,VALID,0,VALID,96.7043,VALID,-0.0169808,VALID,20.6379,VALID,344,VALID,1.06024,
2002-09-13, 01:02:00,VALID,919.614,VALID,0,VALID,96.75,VALID,-0.0169808,VALID,20.6126,VALID,360,VALID,0.944046,
2002-09-13, 01:03:00,VALID,919.595,VALID,0,VALID,96.8836,VALID,0,VALID,20.5798,VALID,19,VALID,0.420847,
2002-09-13, 01:04:00,VALID,919.577,VALID,0,VALID,97.0489,VALID,0,VALID,20.5833,VALID,16,VALID,0.477196,
2002-09-13, 01:05:01,VALID,919.563,VALID,0,VALID,97.0781,VALID,0,VALID,20.5937,VALID,350,VALID,0.523643,
2002-09-13, 01:06:00,VALID,919.533,VALID,0,VALID,97.1175,VALID,-0.0169808,VALID,20.5701,VALID,356,VALID,0.552576,
2002-09-13, 01:07:01,VALID,919.496,VALID,0,VALID,97.1836,VALID,-0.0169808,VALID,20.5738,VALID,14,VALID,0.599712,
2002-09-13, 01:08:00,VALID,919.477,VALID,0,VALID,97.2434,VALID,-0.0169808,VALID,20.5577,VALID,331,VALID,0.528294,
2002-09-13, 01:09:00,VALID,919.44,VALID,0,VALID,97.3286,VALID,-0.0339617,VALID,20.5639,VALID,1,VALID,0.525493,
2002-09-13, 01:10:01,VALID,919.437,VALID,0,VALID,97.3337,VALID,-0.0169808,VALID,20.5606,VALID,6,VALID,1.05448,
2002-09-13, 01:11:01,VALID,919.438,VALID,0,VALID,97.3401,VALID,0,VALID,20.5373,VALID,352,VALID,1.00884,
2002-09-13, 01:12:01,VALID,919.458,VALID,0,VALID,97.4049,VALID,-0.0339617,VALID,20.5415,VALID,345,VALID,0.745777,
2002-09-13, 01:13:01,VALID,919.464,VALID,0,VALID,97.4723,VALID,0,VALID,20.5249,VALID,355,VALID,0.549548,
2002-09-13, 01:14:01,VALID,919.47,VALID,0,VALID,97.5448,VALID,-0.0339617,VALID,20.5313,VALID,358,VALID,0.404139,
2002-09-13, 01:15:01,VALID,919.461,VALID,0,VALID,97.6427,VALID,0,VALID,20.5544,VALID,9,VALID,0.592105,
2002-09-13, 01:16:01,VALID,919.448,VALID,0,VALID,97.5562,VALID,-0.0169808,VALID,20.5453,VALID,14,VALID,0.995777,
2002-09-13, 01:17:01,VALID,919.431,VALID,0,VALID,97.527,VALID,-0.0169808,VALID,20.5251,VALID,15,VALID,0.791735,
2002-09-13, 01:18:01,VALID,919.422,VALID,0,VALID,97.4939,VALID,-0.0339617,VALID,20.5189,VALID,13,VALID,0.92272,
2002-09-13, 01:19:01,VALID,919.418,VALID,0,VALID,97.4774,VALID,-0.0509425,VALID,20.4998,VALID,17,VALID,0.770559,
2002-09-13, 01:20:01,VALID,919.404,VALID,0,VALID,97.4863,VALID,-0.0169808,VALID,20.4767,VALID,31,VALID,0.739231,
2002-09-13, 01:21:01,VALID,919.408,VALID,0,VALID,97.4507,VALID,-0.0339617,VALID,20.4742,VALID,28,VALID,0.767681,
2002-09-13, 01:22:01,VALID,919.39,VALID,0,VALID,97.4583,VALID,-0.0339617,VALID,20.4476,VALID,29,VALID,0.828125,
2002-09-13, 01:23:01,VALID,919.359,VALID,0,VALID,97.4647,VALID,-0.0339617,VALID,20.4513,VALID,29,VALID,0.469778,
2002-09-13, 01:24:01,VALID,919.327,VALID,0,VALID,97.4787,VALID,-0.0169808,VALID,20.4419,VALID,29,VALID,0.315456,
2002-09-13, 01:25:01,VALID,919.304,VALID,0,VALID,97.4354,VALID,-0.0339617,VALID,20.4193,VALID,2,VALID,0.402755,
2002-09-13, 01:26:01,VALID,919.266,VALID,0,VALID,97.4698,VALID,-0.0679233,VALID,20.4128,VALID,350,VALID,0.221917,
2002-09-13, 01:27:01,VALID,919.237,VALID,0,VALID,97.4901,VALID,-0.0509425,VALID,20.4066,VALID,350,VALID,0.135485,
2002-09-13, 01:28:01,VALID,919.228,VALID,0,VALID,97.4011,VALID,-0.0339617,VALID,20.3894,VALID,360,VALID,0.292019,
2002-09-13, 01:29:01,VALID,919.213,VALID,0,VALID,97.3464,VALID,0,VALID,20.3703,VALID,2,VALID,0.00863487,
2002-09-13, 01:30:01,VALID,919.209,VALID,0,VALID,97.3248,VALID,0,VALID,20.3741,VALID,2,VALID,0.0295608,
2002-09-13, 01:31:00,VALID,919.195,VALID,0,VALID,97.3095,VALID,-0.0509425,VALID,20.381,VALID,2,VALID,0.00493421,
2002-09-13, 01:32:00,VALID,919.183,VALID,0,VALID,97.3261,VALID,0,VALID,20.377,VALID,2,VALID,0.00886824,
2002-09-13, 01:33:00,VALID,919.166,VALID,0,VALID,97.2231,VALID,-0.0509425,VALID,20.3805,VALID,357,VALID,0.0711349,
2002-09-13, 01:34:00,VALID,919.156,VALID,0,VALID,97.1074,VALID,-0.0339617,VALID,20.3614,VALID,303,VALID,0.189611,
2002-09-13, 01:35:00,VALID,919.155,VALID,0,VALID,97.0781,VALID,-0.0849042,VALID,20.3482,VALID,303,VALID,0.0643503,
2002-09-13, 01:36:00,VALID,919.157,VALID,0,VALID,97.0667,VALID,-0.0509425,VALID,20.3517,VALID,303,VALID,0.149071,
2002-09-13, 01:37:00,VALID,919.143,VALID,0,VALID,97.0412,VALID,-0.0679233,VALID,20.3614,VALID,304,VALID,0.313322,
2002-09-13, 01:38:00,VALID,919.15,VALID,0,VALID,97.0158,VALID,0,VALID,20.3644,VALID,302,VALID,0.25359,
2002-09-13, 01:39:00,VALID,919.137,VALID,0,VALID,96.9751,VALID,-0.0339617,VALID,20.3679,VALID,302,VALID,0.240748,
2002-09-13, 01:40:00,VALID,919.133,VALID,0,VALID,96.9497,VALID,-0.0339617,VALID,20.3741,VALID,302,VALID,0.0282939,
2002-09-13, 01:41:00,VALID,919.119,VALID,0,VALID,96.9268,VALID,-0.0169808,VALID,20.3611,VALID,302,VALID,0.110814,
2002-09-13, 01:42:00,VALID,919.106,VALID,0,VALID,96.9573,VALID,-0.0849042,VALID,20.3646,VALID,302,VALID,0.221073,
2002-09-13, 01:43:00,VALID,919.089,VALID,0,VALID,97.0056,VALID,-0.0339617,VALID,20.3482,VALID,302,VALID,0.201275,
2002-09-13, 01:44:00,VALID,919.094,VALID,0,VALID,97.0857,VALID,-0.0509425,VALID,20.3547,VALID,302,VALID,0,
2002-09-13, 01:45:00,VALID,919.094,VALID,0,VALID,97.1137,VALID,-0.0169808,VALID,20.3547,VALID,302,VALID,0.0429688,
2002-09-13, 01:46:00,VALID,919.084,VALID,0,VALID,97.115,VALID,-0.0169808,VALID,20.3582,VALID,302,VALID,0.0168919,
2002-09-13, 01:47:00,VALID,919.067,VALID,0,VALID,97.1633,VALID,-0.0169808,VALID,20.3552,VALID,302,VALID,0,
2002-09-13, 01:48:00,VALID,919.071,VALID,0,VALID,97.2269,VALID,-0.0169808,VALID,20.3614,VALID,302,VALID,0,
2002-09-13, 01:49:00,VALID,919.053,VALID,0,VALID,97.2358,VALID,-0.0169808,VALID,20.3681,VALID,302,VALID,0,
2002-09-13, 01:50:00,VALID,919.06,VALID,0,VALID,97.2396,VALID,-0.0509425,VALID,20.3649,VALID,302,VALID,0,
2002-09-13, 01:51:00,VALID,919.05,VALID,0,VALID,97.2727,VALID,0,VALID,20.3646,VALID,302,VALID,0.0481086,
2002-09-13, 01:52:00,VALID,919.039,VALID,0,VALID,97.3121,VALID,-0.0679233,VALID,20.3646,VALID,302,VALID,0.165329,
2002-09-13, 01:53:00,VALID,919.03,VALID,0,VALID,97.3808,VALID,-0.0169808,VALID,20.3676,VALID,301,VALID,0.015625,
2002-09-13, 01:54:00,VALID,919.034,VALID,0,VALID,97.4354,VALID,-0.0169808,VALID,20.3706,VALID,301,VALID,0,
2002-09-13, 01:55:00,VALID,919.05,VALID,0,VALID,97.4405,VALID,-0.0339617,VALID,20.3778,VALID,301,VALID,0.107113,
2002-09-13, 01:56:00,VALID,919.056,VALID,0,VALID,97.452,VALID,-0.0339617,VALID,20.3843,VALID,301,VALID,0.107475,
2002-09-13, 01:57:00,VALID,919.067,VALID,0,VALID,97.4367,VALID,-0.0169808,VALID,20.3711,VALID,301,VALID,0.196752,
2002-09-13, 01:58:00,VALID,919.072,VALID,0,VALID,97.4342,VALID,-0.0339617,VALID,20.3711,VALID,301,VALID,0,
2002-09-13, 01:59:00,VALID,919.067,VALID,0,VALID,97.4036,VALID,-0.0509425,VALID,20.3646,VALID,301,VALID,0.0411184,
2002-09-13, 02:00:00,VALID,919.056,VALID,0,VALID,97.2765,VALID,-0.0339617,VALID,20.3452,VALID,294,VALID,0.240076,
2002-09-13, 02:01:00,VALID,919.047,VALID,0,VALID,97.2256,VALID,-0.0339617,VALID,20.3388,VALID,289,VALID,0.162007,
2002-09-13, 02:02:00,VALID,919.012,VALID,0,VALID,97.1836,VALID,-0.0169808,VALID,20.3256,VALID,194,VALID,0.361698,
2002-09-13, 02:03:00,VALID,918.995,VALID,0,VALID,97.1163,VALID,-0.0339617,VALID,20.3025,VALID,132,VALID,0.313734,
2002-09-13, 02:04:00,VALID,918.969,VALID,0,VALID,97.0768,VALID,-0.0509425,VALID,20.2901,VALID,132,VALID,0.201647,
2002-09-13, 02:05:00,VALID,918.95,VALID,0,VALID,97.1201,VALID,-0.0339617,VALID,20.2769,VALID,132,VALID,0.163446,
2002-09-13, 02:06:00,VALID,918.918,VALID,0,VALID,97.0972,VALID,0,VALID,20.2796,VALID,132,VALID,0.302787,
2002-09-13, 02:07:00,VALID,918.879,VALID,0,VALID,97.0832,VALID,-0.0339617,VALID,20.2607,VALID,132,VALID,0.230674,
2002-09-13, 02:08:00,VALID,918.858,VALID,0,VALID,97.0781,VALID,0,VALID,20.261,VALID,135,VALID,0.206715,
2002-09-13, 02:09:00,VALID,918.846,VALID,0,VALID,97.0501,VALID,0,VALID,20.2416,VALID,139,VALID,0.282278,
2002-09-13, 02:10:00,VALID,918.843,VALID,0,VALID,97.0285,VALID,0,VALID,20.2287,VALID,139,VALID,0.231208,
2002-09-13, 02:11:00,VALID,918.843,VALID,0,VALID,97.0107,VALID,-0.0169808,VALID,20.2125,VALID,140,VALID,0.324013,
2002-09-13, 02:12:00,VALID,918.845,VALID,0,VALID,97.0438,VALID,-0.0339617,VALID,20.183,VALID,159,VALID,0.296453,
2002-09-13, 02:13:00,VALID,918.842,VALID,0,VALID,97.0756,VALID,-0.0339617,VALID,20.1832,VALID,159,VALID,0.0283717,
2002-09-13, 02:14:00,VALID,918.842,VALID,0,VALID,97.0717,VALID,-0.0169808,VALID,20.1807,VALID,159,VALID,0.00168919,
2002-09-13, 02:15:00,VALID,918.838,VALID,0,VALID,97.0209,VALID,-0.0509425,VALID,20.1544,VALID,159,VALID,0,
2002-09-13, 02:16:00,VALID,918.838,VALID,0,VALID,97.0005,VALID,-0.0509425,VALID,20.1388,VALID,159,VALID,0,
2002-09-13, 02:17:00,VALID,918.819,VALID,0,VALID,97.0438,VALID,-0.0169808,VALID,20.1189,VALID,159,VALID,0,
2002-09-13, 02:18:00,VALID,918.819,VALID,0,VALID,97.0005,VALID,0.0169808,VALID,20.1025,VALID,159,VALID,0,
2002-09-13, 02:19:00,VALID,918.823,VALID,0,VALID,96.7411,VALID,0,VALID,20.0279,VALID,159,VALID,0,
2002-09-13, 02:20:00,VALID,918.826,VALID,0,VALID,96.4932,VALID,0,VALID,19.9603,VALID,159,VALID,0,
2002-09-13, 02:21:00,VALID,918.829,VALID,0,VALID,96.4054,VALID,0,VALID,19.8928,VALID,159,VALID,0.0361842,
2002-09-13, 02:22:00,VALID,918.84,VALID,0,VALID,96.4334,VALID,0,VALID,19.854,VALID,159,VALID,0.202703,
2002-09-13, 02:23:00,VALID,918.857,VALID,0,VALID,96.5682,VALID,-0.0169808,VALID,19.8247,VALID,159,VALID,0,
2002-09-13, 02:24:00,VALID,918.856,VALID,0,VALID,96.661,VALID,-0.0169808,VALID,19.8153,VALID,159,VALID,0,
2002-09-13, 02:25:00,VALID,918.854,VALID,0,VALID,96.7564,VALID,0,VALID,19.7991,VALID,159,VALID,0,
2002-09-13, 02:26:00,VALID,918.855,VALID,0,VALID,96.909,VALID,-0.0339617,VALID,19.819,VALID,159,VALID,0,
2002-09-13, 02:27:00,VALID,918.833,VALID,0,VALID,97.0565,VALID,-0.0169808,VALID,19.8346,VALID,159,VALID,0,
2002-09-13, 02:28:00,VALID,918.826,VALID,0,VALID,97.1786,VALID,-0.0169808,VALID,19.8505,VALID,159,VALID,0,
2002-09-13, 02:29:00,VALID,918.801,VALID,0,VALID,97.3909,VALID,0,VALID,19.8831,VALID,159,VALID,0,
2002-09-13, 02:30:00,VALID,918.787,VALID,0,VALID,97.5893,VALID,-0.0339617,VALID,19.9325,VALID,159,VALID,0,
2002-09-13, 02:31:00,VALID,918.783,VALID,0,VALID,97.5372,VALID,0.0169808,VALID,19.9509,VALID,159,VALID,0,
2002-09-13, 02:32:00,VALID,918.791,VALID,0,VALID,97.2587,VALID,0.0849042,VALID,19.9141,VALID,159,VALID,0,
2002-09-13, 02:33:00,VALID,918.799,VALID,0,VALID,97.307,VALID,0.0679233,VALID,19.8878,VALID,159,VALID,0,
2002-09-13, 02:34:00,VALID,918.812,VALID,0,VALID,97.4202,VALID,0.0849042,VALID,19.9079,VALID,159,VALID,0,
2002-09-13, 02:35:00,VALID,918.808,VALID,0,VALID,97.4278,VALID,0.101885,VALID,19.9171,VALID,159,VALID,0,
2002-09-13, 02:36:00,VALID,918.821,VALID,0,VALID,97.4405,VALID,0.101885,VALID,19.9171,VALID,159,VALID,0,
2002-09-13, 02:37:00,VALID,918.815,VALID,0,VALID,97.5054,VALID,0.0679233,VALID,19.9429,VALID,159,VALID,0,
2002-09-13, 02:38:00,VALID,918.813,VALID,0,VALID,97.5066,VALID,0.0849042,VALID,19.9591,VALID,159,VALID,0,
2002-09-13, 02:39:00,VALID,918.822,VALID,0,VALID,97.4329,VALID,0.101885,VALID,19.9596,VALID,159,VALID,0,
2002-09-13, 02:40:00,VALID,918.801,VALID,0,VALID,97.3528,VALID,0.0849042,VALID,19.9529,VALID,159,VALID,0,
2002-09-13, 02:41:00,VALID,918.793,VALID,0,VALID,97.4685,VALID,-0.0339617,VALID,19.9832,VALID,159,VALID,0,
2002-09-13, 02:42:00,VALID,918.783,VALID,0,VALID,97.4761,VALID,-0.0169808,VALID,19.9961,VALID,159,VALID,0,
2002-09-13, 02:43:00,VALID,918.763,VALID,0,VALID,97.3083,VALID,0,VALID,20.0026,VALID,159,VALID,0.10588,
2002-09-13, 02:44:00,VALID,918.771,VALID,0,VALID,96.9815,VALID,0,VALID,19.938,VALID,159,VALID,0,
2002-09-13, 02:45:00,VALID,918.756,VALID,0,VALID,97.0171,VALID,0,VALID,19.9382,VALID,159,VALID,0.00123355,
2002-09-13, 02:46:00,VALID,918.74,VALID,0,VALID,97.0565,VALID,-0.0169808,VALID,19.945,VALID,159,VALID,0,
2002-09-13, 02:47:00,VALID,918.741,VALID,0,VALID,96.8352,VALID,-0.0849042,VALID,19.9301,VALID,159,VALID,0,
2002-09-13, 02:48:00,VALID,918.736,VALID,0,VALID,96.8568,VALID,-0.101885,VALID,19.9137,VALID,159,VALID,0,
2002-09-13, 02:49:00,VALID,918.726,VALID,0,VALID,97.0044,VALID,-0.101885,VALID,19.9296,VALID,159,VALID,0,
2002-09-13, 02:50:00,VALID,918.721,VALID,0,VALID,97.1315,VALID,-0.101885,VALID,19.9556,VALID,159,VALID,0,
2002-09-13, 02:51:00,VALID,918.724,VALID,0,VALID,97.1938,VALID,-0.0849042,VALID,19.9748,VALID,159,VALID,0,
2002-09-13, 02:52:00,VALID,918.729,VALID,0,VALID,97.2523,VALID,-0.0849042,VALID,20.0009,VALID,159,VALID,0,
2002-09-13, 02:53:00,VALID,918.721,VALID,0,VALID,97.2917,VALID,-0.101885,VALID,20.0197,VALID,159,VALID,0.0906661,
2002-09-13, 02:54:00,VALID,918.702,VALID,0,VALID,97.4151,VALID,-0.101885,VALID,20.0692,VALID,159,VALID,0,
2002-09-13, 02:55:00,VALID,918.706,VALID,0,VALID,97.5283,VALID,-0.0849042,VALID,20.1075,VALID,159,VALID,0,
2002-09-13, 02:56:00,VALID,918.715,VALID,0,VALID,97.5473,VALID,-0.0679233,VALID,20.1363,VALID,159,VALID,0,
2002-09-13, 02:57:00,VALID,918.708,VALID,0,VALID,97.5181,VALID,-0.101885,VALID,20.1529,VALID,159,VALID,0,
2002-09-13, 02:58:00,VALID,918.716,VALID,0,VALID,97.4291,VALID,-0.101885,VALID,20.1597,VALID,159,VALID,0,
2002-09-13, 02:59:00,VALID,918.722,VALID,0,VALID,97.2332,VALID,-0.0849042,VALID,20.1303,VALID,159,VALID,0,
2002-09-13, 03:00:00,VALID,918.73,VALID,0,VALID,97.1786,VALID,-0.118866,VALID,20.1174,VALID,159,VALID,0,
2002-09-13, 03:01:00,VALID,918.738,VALID,0,VALID,97.1099,VALID,-0.0679233,VALID,20.1142,VALID,159,VALID,0,
2002-09-13, 03:02:00,VALID,918.734,VALID,0,VALID,97.012,VALID,-0.0849042,VALID,20.0911,VALID,156,VALID,0.00844595,
2002-09-13, 03:03:00,VALID,918.752,VALID,0,VALID,97.0272,VALID,-0.0849042,VALID,20.0878,VALID,156,VALID,0.0499589,
2002-09-13, 03:04:00,VALID,918.763,VALID,0,VALID,97.04,VALID,-0.101885,VALID,20.1008,VALID,121,VALID,0.266258,
2002-09-13, 03:05:00,VALID,918.78,VALID,0,VALID,96.9637,VALID,-0.101885,VALID,20.1008,VALID,23,VALID,0.360814,
2002-09-13, 03:06:00,VALID,918.806,VALID,0,VALID,96.9395,VALID,-0.101885,VALID,20.107,VALID,23,VALID,0.330025,
2002-09-13, 03:07:00,VALID,918.836,VALID,0,VALID,96.9153,VALID,-0.0849042,VALID,20.1274,VALID,22,VALID,0.597862,
2002-09-13, 03:08:00,VALID,918.854,VALID,0,VALID,96.9293,VALID,-0.118866,VALID,20.1142,VALID,21,VALID,0.563767,
2002-09-13, 03:09:00,VALID,918.877,VALID,0,VALID,96.9293,VALID,-0.0849042,VALID,20.1142,VALID,21,VALID,0.363692,
2002-09-13, 03:10:00,VALID,918.894,VALID,0,VALID,97.026,VALID,-0.101885,VALID,20.097,VALID,21,VALID,0.190034,
2002-09-13, 03:11:00,VALID,918.901,VALID,0,VALID,97.1811,VALID,-0.0509425,VALID,20.1005,VALID,21,VALID,0.00390625,
2002-09-13, 03:12:00,VALID,918.916,VALID,0,VALID,97.3146,VALID,-0.0509425,VALID,20.1363,VALID,21,VALID,0,
2002-09-13, 03:13:00,VALID,918.939,VALID,0,VALID,97.4265,VALID,-0.0849042,VALID,20.1621,VALID,21,VALID,0,
2002-09-13, 03:14:00,VALID,918.942,VALID,0,VALID,97.4723,VALID,-0.101885,VALID,20.1947,VALID,21,VALID,0,
2002-09-13, 03:15:00,VALID,918.956,VALID,0,VALID,97.5003,VALID,-0.101885,VALID,20.1949,VALID,21,VALID,0.000205592,
2002-09-13, 03:16:00,VALID,918.968,VALID,0,VALID,97.4888,VALID,-0.0849042,VALID,20.2079,VALID,21,VALID,0.0996622,
2002-09-13, 03:17:00,VALID,918.968,VALID,0,VALID,97.5003,VALID,0.0509425,VALID,20.2056,VALID,21,VALID,0.180099,
2002-09-13, 03:18:00,VALID,918.98,VALID,0,VALID,97.5066,VALID,0,VALID,20.2053,VALID,21,VALID,0.317568,
2002-09-13, 03:19:00,VALID,918.972,VALID,0,VALID,97.5105,VALID,0.0169808,VALID,20.2061,VALID,21,VALID,0.175576,
2002-09-13, 03:20:00,VALID,918.968,VALID,0,VALID,97.5346,VALID,0.0169808,VALID,20.1989,VALID,21,VALID,0.153927,
2002-09-13, 03:21:00,VALID,918.956,VALID,0,VALID,97.5537,VALID,0.0509425,VALID,20.2091,VALID,96,VALID,0.363487,
2002-09-13, 03:22:00,VALID,918.94,VALID,0,VALID,97.5626,VALID,0,VALID,20.1921,VALID,145,VALID,0.374155,
2002-09-13, 03:23:00,VALID,918.935,VALID,0,VALID,97.5829,VALID,0.0169808,VALID,20.1994,VALID,145,VALID,0.277549,
2002-09-13, 03:24:00,VALID,918.95,VALID,0,VALID,97.6376,VALID,0.0339617,VALID,20.1961,VALID,145,VALID,0.0926943,
2002-09-13, 03:25:00,VALID,918.967,VALID,0,VALID,97.6859,VALID,0,VALID,20.2023,VALID,145,VALID,0.068051,
2002-09-13, 03:26:00,VALID,918.996,VALID,0,VALID,97.733,VALID,0.0339617,VALID,20.2155,VALID,145,VALID,0.0278716,
2002-09-13, 03:27:00,VALID,919.029,VALID,0,VALID,97.7762,VALID,0.0339617,VALID,20.2314,VALID,145,VALID,0,
2002-09-13, 03:28:00,VALID,919.043,VALID,0,VALID,97.7699,VALID,0,VALID,20.2483,VALID,145,VALID,0.048353,
2002-09-13, 03:29:00,VALID,919.066,VALID,0,VALID,97.7419,VALID,0.0169808,VALID,20.2511,VALID,144,VALID,0.156661,
2002-09-13, 03:30:00,VALID,919.063,VALID,0,VALID,97.6923,VALID,0,VALID,20.2414,VALID,33,VALID,0.162373,
2002-09-13, 03:31:00,VALID,919.039,VALID,0,VALID,97.6567,VALID,0.0169808,VALID,20.2483,VALID,31,VALID,0.0148026,
2002-09-13, 03:32:00,VALID,919.009,VALID,0,VALID,97.6389,VALID,0,VALID,20.2481,VALID,31,VALID,0,
2002-09-13, 03:33:00,VALID,918.975,VALID,0,VALID,97.5855,VALID,0.0169808,VALID,20.2446,VALID,31,VALID,0.00308388,
2002-09-13, 03:34:00,VALID,918.935,VALID,0,VALID,97.5194,VALID,0,VALID,20.2481,VALID,31,VALID,0.0836149,
2002-09-13, 03:35:00,VALID,918.895,VALID,0,VALID,97.4609,VALID,0,VALID,20.2416,VALID,31,VALID,0.0499589,
2002-09-13, 03:36:00,VALID,918.865,VALID,0,VALID,97.4392,VALID,0,VALID,20.2478,VALID,31,VALID,0,